When you browse on this site, cookies collect data to enhance your experience and personalize the content and advertising you see.
Visit our Privacy Policy to learn more. By continuing to use the site, you agree to this use of cookies and data.
  • In Schweiz
  • Länderverzeichnis
  • Für 7 Tage
  • Wassertemperatur
  • Satellitenkarten
  • Wetterkarte
  • Widgets
  • user-avatar
    Anmelden

    Stündliche Wetter Bayki-Yunusovo

    Heute, 24 Januar, Donnerstag

    Zeit Temperatur Niederschläge Wind Luftdruck Luftfeuchtigkeit
    00:00 -26°C° 0 mm 2 m/S 753 mmHg 98%
    01:00 -26°C° 0 mm 2 m/S 754 mmHg 98%
    02:00 -26°C° 0 mm 2 m/S 754 mmHg 98%
    03:00 -26°C° 0 mm 2 m/S 755 mmHg 98%
    04:00 -26°C° 0 mm 2 m/S 755 mmHg 98%
    05:00 -26°C° 0 mm 2 m/S 756 mmHg 98%
    06:00 -29°C° 0 mm 3 m/S 756 mmHg 98%
    07:00 -29°C° 0 mm 3 m/S 756 mmHg 98%
    08:00 -27°C° 0 mm 3 m/S 756 mmHg 98%
    09:00 -27°C° 0 mm 3 m/S 757 mmHg 97%
    10:00 -27°C° 0 mm 3 m/S 757 mmHg 97%
    11:00 -25°C° 0 mm 3 m/S 757 mmHg 96%
    12:00 -24°C° 0 mm 3 m/S 757 mmHg 95%
    13:00 -23°C° 0 mm 3 m/S 757 mmHg 95%
    14:00 -24°C° 0 mm 3 m/S 757 mmHg 95%
    15:00 -24°C° 0 mm 3 m/S 757 mmHg 96%
    16:00 -24°C° 0 mm 3 m/S 757 mmHg 96%
    17:00 -24°C° 0 mm 3 m/S 757 mmHg 96%
    18:00 -24°C° 0 mm 3 m/S 757 mmHg 96%
    19:00 -24°C° 0 mm 3 m/S 757 mmHg 96%
    20:00 -23°C° 0 mm 3 m/S 756 mmHg 94%
    21:00 -22°C° 0 mm 3 m/S 756 mmHg 93%
    22:00 -22°C° 0 mm 4 m/S 755 mmHg 92%
    23:00 -20°C° 0.1 mm 4 m/S 754 mmHg 91%

    Morgen, 25 Januar, Freitag

    Zeit Temperatur Niederschläge Wind Luftdruck Luftfeuchtigkeit
    00:00 -19°C° 0.1 mm 4 m/S 754 mmHg 91%
    01:00 -19°C° 0.1 mm 4 m/S 753 mmHg 90%
    02:00 -18°C° 0.3 mm 5 m/S 752 mmHg 91%
    03:00 -17°C° 0.3 mm 5 m/S 751 mmHg 91%
    04:00 -15°C° 0.3 mm 5 m/S 750 mmHg 91%
    05:00 -15°C° 0.3 mm 5 m/S 749 mmHg 92%
    06:00 -15°C° 0.3 mm 5 m/S 748 mmHg 92%
    07:00 -14°C° 0.3 mm 4 m/S 747 mmHg 92%
    08:00 -14°C° 0.2 mm 5 m/S 746 mmHg 92%
    09:00 -14°C° 0.2 mm 5 m/S 746 mmHg 92%
    10:00 -14°C° 0.2 mm 5 m/S 746 mmHg 91%
    11:00 -14°C° 0.2 mm 5 m/S 745 mmHg 91%
    12:00 -14°C° 0.2 mm 5 m/S 745 mmHg 91%
    13:00 -14°C° 0.2 mm 5 m/S 745 mmHg 91%
    14:00 -14°C° 0.2 mm 5 m/S 745 mmHg 91%
    15:00 -14°C° 0.2 mm 5 m/S 745 mmHg 90%
    16:00 -15°C° 0.2 mm 5 m/S 745 mmHg 90%
    17:00 -17°C° 0 mm 5 m/S 746 mmHg 92%
    18:00 -19°C° 0 mm 5 m/S 747 mmHg 93%
    19:00 -19°C° 0 mm 4 m/S 747 mmHg 95%
    20:00 -20°C° 0.1 mm 4 m/S 748 mmHg 95%
    21:00 -22°C° 0.1 mm 4 m/S 749 mmHg 96%
    22:00 -23°C° 0.1 mm 4 m/S 750 mmHg 96%
    23:00 -24°C° 0 mm 4 m/S 751 mmHg 97%

    übermorgen, 26 Januar, Samstag

    Zeit Temperatur Niederschläge Wind Luftdruck Luftfeuchtigkeit
    00:00 -25°C° 0 mm 4 m/S 751 mmHg 97%
    01:00 -26°C° 0 mm 4 m/S 752 mmHg 98%
    02:00 -26°C° 0 mm 3 m/S 752 mmHg 98%
    03:00 -27°C° 0 mm 3 m/S 753 mmHg 98%
    04:00 -29°C° 0 mm 3 m/S 754 mmHg 98%
    05:00 -29°C° 0 mm 3 m/S 754 mmHg 98%
    06:00 -30°C° 0 mm 3 m/S 755 mmHg 99%
    07:00 -29°C° 0 mm 2 m/S 755 mmHg 99%
    08:00 -29°C° 0 mm 2 m/S 756 mmHg 98%
    09:00 -28°C° 0 mm 2 m/S 757 mmHg 98%
    10:00 -28°C° 0 mm 2 m/S 757 mmHg 98%
    11:00 -27°C° 0 mm 2 m/S 758 mmHg 97%
    12:00 -26°C° 0 mm 2 m/S 758 mmHg 97%
    13:00 -25°C° 0 mm 2 m/S 758 mmHg 97%
    14:00 -25°C° 0 mm 2 m/S 758 mmHg 97%
    15:00 -26°C° 0 mm 2 m/S 759 mmHg 97%
    16:00 -26°C° 0 mm 2 m/S 759 mmHg 97%
    17:00 -27°C° 0 mm 2 m/S 759 mmHg 97%
    18:00 -28°C° 0 mm 2 m/S 759 mmHg 98%
    19:00 -29°C° 0 mm 2 m/S 760 mmHg 98%
    20:00 -29°C° 0 mm 2 m/S 760 mmHg 97%
    21:00 -27°C° 0 mm 1 m/S 760 mmHg 96%
    22:00 -27°C° 0 mm 1 m/S 760 mmHg 96%
    23:00 -25°C° 0 mm 1 m/S 760 mmHg 94%

    27 Januar, Sonntag

    Zeit Temperatur Niederschläge Wind Luftdruck Luftfeuchtigkeit
    00:00 -25°C° 0 mm 1 m/S 760 mmHg 93%
    01:00 -24°C° 0 mm 1 m/S 760 mmHg 91%
    02:00 -24°C° 0 mm 1 m/S 760 mmHg 90%
    03:00 -23°C° 0 mm 1 m/S 760 mmHg 88%
    04:00 -26°C° 0 mm 2 m/S 760 mmHg 86%
    05:00 -25°C° 0 mm 2 m/S 760 mmHg 85%
    06:00 -25°C° 0 mm 2 m/S 759 mmHg 83%
    07:00 -25°C° 0 mm 3 m/S 759 mmHg 81%
    08:00 -24°C° 0 mm 3 m/S 759 mmHg 80%
    09:00 -22°C° 0 mm 3 m/S 759 mmHg 78%
    10:00 -21°C° 0 mm 3 m/S 759 mmHg 77%
    11:00 -19°C° 0 mm 3 m/S 758 mmHg 77%
    12:00 -17°C° 0 mm 3 m/S 757 mmHg 77%
    13:00 -16°C° 0 mm 3 m/S 757 mmHg 77%
    14:00 -16°C° 0 mm 3 m/S 756 mmHg 78%
    15:00 -16°C° 0 mm 3 m/S 756 mmHg 79%
    16:00 -16°C° 0 mm 3 m/S 755 mmHg 81%
    17:00 -17°C° 0 mm 3 m/S 755 mmHg 81%
    18:00 -17°C° 0 mm 3 m/S 754 mmHg 81%
    19:00 -18°C° 0 mm 3 m/S 754 mmHg 81%
    20:00 -17°C° 0 mm 3 m/S 754 mmHg 81%
    21:00 -16°C° 0 mm 3 m/S 753 mmHg 81%
    22:00 -14°C° 0 mm 3 m/S 753 mmHg 80%
    23:00 -14°C° 0 mm 3 m/S 753 mmHg 80%

    28 Januar, Montag

    Zeit Temperatur Niederschläge Wind Luftdruck Luftfeuchtigkeit
    00:00 -15°C° 0 mm 3 m/S 752 mmHg 80%
    01:00 -15°C° 0 mm 3 m/S 752 mmHg 79%
    02:00 -15°C° 0 mm 3 m/S 751 mmHg 79%
    03:00 -15°C° 0 mm 3 m/S 751 mmHg 79%
    04:00 -16°C° 0 mm 3 m/S 750 mmHg 79%
    05:00 -16°C° 0 mm 3 m/S 750 mmHg 79%
    06:00 -16°C° 0 mm 3 m/S 749 mmHg 79%
    07:00 -16°C° 0 mm 3 m/S 749 mmHg 78%
    08:00 -15°C° 0 mm 3 m/S 748 mmHg 77%
    09:00 -15°C° 0 mm 3 m/S 748 mmHg 76%
    10:00 -14°C° 0 mm 3 m/S 747 mmHg 75%
    11:00 -12°C° 0 mm 3 m/S 747 mmHg 75%
    12:00 -9°C° 0 mm 3 m/S 746 mmHg 75%
    13:00 -7°C° 0 mm 3 m/S 746 mmHg 76%
    14:00 -7°C° 0 mm 3 m/S 745 mmHg 78%
    15:00 -7°C° 0 mm 3 m/S 745 mmHg 80%
    16:00 -7°C° 0 mm 3 m/S 744 mmHg 82%
    17:00 -7°C° 0.2 mm 3 m/S 744 mmHg 85%
    18:00 -7°C° 0.2 mm 3 m/S 743 mmHg 88%
    19:00 -8°C° 0.2 mm 4 m/S 743 mmHg 92%
    20:00 -8°C° 0.6 mm 4 m/S 743 mmHg 92%
    21:00 -9°C° 0.6 mm 4 m/S 743 mmHg 93%
    22:00 -9°C° 0.6 mm 4 m/S 743 mmHg 94%
    23:00 -9°C° 0.2 mm 4 m/S 742 mmHg 93%

    29 Januar, Dienstag

    Zeit Temperatur Niederschläge Wind Luftdruck Luftfeuchtigkeit
    00:00 -10°C° 0.2 mm 4 m/S 742 mmHg 93%
    01:00 -10°C° 0.2 mm 4 m/S 742 mmHg 92%
    02:00 -11°C° 0.1 mm 4 m/S 742 mmHg 93%
    03:00 -11°C° 0.1 mm 4 m/S 742 mmHg 93%
    04:00 -10°C° 0.1 mm 3 m/S 742 mmHg 94%
    05:00 -12°C° 0.1 mm 3 m/S 742 mmHg 94%
    06:00 -12°C° 0.1 mm 3 m/S 742 mmHg 94%
    07:00 -12°C° 0.1 mm 3 m/S 742 mmHg 95%
    08:00 -12°C° 0 mm 3 m/S 743 mmHg 95%
    09:00 -12°C° 0 mm 3 m/S 743 mmHg 96%
    10:00 -12°C° 0 mm 3 m/S 743 mmHg 96%
    11:00 -12°C° 0 mm 3 m/S 743 mmHg 96%
    12:00 -12°C° 0 mm 3 m/S 743 mmHg 95%
    13:00 -12°C° 0 mm 3 m/S 744 mmHg 95%
    14:00 -12°C° 0.1 mm 3 m/S 744 mmHg 95%
    15:00 -12°C° 0.1 mm 3 m/S 744 mmHg 95%
    16:00 -12°C° 0.1 mm 3 m/S 745 mmHg 95%
    17:00 -12°C° 0.2 mm 3 m/S 745 mmHg 95%
    18:00 -12°C° 0.2 mm 3 m/S 745 mmHg 96%
    19:00 -12°C° 0.2 mm 3 m/S 746 mmHg 96%
    20:00 -12°C° 0.1 mm 3 m/S 746 mmHg 96%
    21:00 -13°C° 0.1 mm 3 m/S 747 mmHg 96%
    22:00 -13°C° 0.1 mm 3 m/S 747 mmHg 96%
    23:00 -14°C° 0.1 mm 3 m/S 747 mmHg 96%
    Mehr zeigen